[[{"header":{"parameterUnit":"m.s-1","parameterCategory":1,"la1":30.2992,"la2":30.254,"lo1":-89.0895,"lo2":-89.0443,"dy":0.0025,"dx":0.0025,"nx":19,"ny":19,"refTime":"2026-04-20T03:00:00:Z","depth":0,"parameterNumber":2,"parameterNumberName":"U-component_of_WINDS"},"data":[0,0,0,-1.7256,-1.7256,-1.7244,-1.7244,-1.7251,-1.7251,0,0,0,0,0,0,0,0,0,0,0,-1.7272,-1.7273,-1.7256,-1.7256,-1.7244,-1.7244,-1.7251,-1.7251,0,0,0,0,0,0,0,0,0,0,0,-1.7272,-1.7273,-1.7273,-1.7256,-1.7244,-1.7244,-1.7251,-1.7252,0,0,0,0,0,0,0,0,0,0,-1.726,-1.7288,-1.7273,-1.7273,-1.7256,-1.7244,-1.7244,-1.7252,-1.7252,-1.7266,0,-1.7281,0,-1.7267,-1.7253,-1.7253,0,0,0,-1.7246,-1.7288,-1.7273,-1.7274,-1.7256,-1.7244,-1.7247,-1.7252,-1.7252,-1.7267,-1.7281,-1.7281,-1.7267,-1.7253,-1.7254,-1.7364,-1.7365,0,0,-1.7247,-1.7278,-1.7273,-1.7274,-1.7276,-1.7247,-1.7246,-1.7252,-1.727,-1.7281,-1.7281,-1.7267,-1.7254,-1.7254,-1.7364,-1.7365,0,0,0,-1.7255,-1.7279,-1.7263,-1.7274,-1.727,-1.7247,-1.7246,-1.727,-1.7262,-1.7281,-1.7267,-1.7254,-1.7254,-1.7362,-1.7364,-1.7442,0,0,0,-1.7255,-1.7283,-1.7263,-1.7282,-1.727,-1.7269,-1.7265,-1.7261,-1.7261,-1.7267,-1.7254,-1.7254,-1.7361,-1.7363,-1.7437,-1.7475,0,0,0,-1.7269,-1.7285,-1.7287,-1.7284,-1.7279,-1.7269,-1.7261,-1.7261,-1.7253,-1.7253,-1.7254,-1.7361,-1.7363,-1.7433,-1.7468,-1.7514,0,0,0,-1.7292,-1.7357,-1.7289,-1.7355,-1.728,-1.7316,-1.726,-1.7286,-1.7295,-1.7254,-1.7361,-1.7364,-1.7432,-1.7464,-1.751,-1.7559,-1.7582,0,0,-1.7391,-1.737,-1.7406,-1.7345,-1.7402,-1.7316,-1.7383,-1.7363,-1.7336,-1.7357,-1.7359,-1.7439,-1.7467,-1.7513,-1.7697,-1.7716,0,0,0,-1.7448,-1.7475,-1.7483,-1.7493,-1.7479,-1.747,-1.7436,-1.7428,-1.7444,-1.7352,-1.7466,-1.7482,-1.7507,-1.753,-1.7546,-1.7567,-1.7375,-1.7375,-1.7374,-1.7632,-1.7593,-1.7651,-1.761,-1.7621,-1.7585,-1.759,-1.7574,-1.7531,-1.7558,-1.7565,-1.7682,-1.7709,-1.7721,-1.7743,-1.7586,-1.7587,-1.7587,-1.7587,-1.7774,-1.7807,-1.7748,-1.7784,-1.7742,-1.7771,-1.7739,-1.7708,-1.773,-1.7673,-1.7694,-1.7637,-1.7742,-1.776,-1.7593,-1.7592,-1.7591,-1.759,-1.759,-1.7893,-1.7902,-1.789,-1.7901,-1.7913,-1.7869,-1.7894,-1.7854,-1.7817,-1.7837,-1.7841,-1.7839,-1.7835,-1.7841,-1.7841,-1.7842,-1.7842,-1.7842,-1.7843,-1.8021,-1.8006,-1.8031,-1.802,-1.8022,-1.8018,-1.7982,-1.7983,-1.7974,-1.7943,-1.7943,-1.7899,-1.7759,-1.7726,-1.7849,-1.7848,-1.7847,-1.7846,-1.7846,-1.8184,-1.814,-1.8179,-1.8181,-1.8165,-1.8181,-1.8129,-1.8134,-1.8128,-1.8142,-1.8092,-1.7995,-1.7971,-1.7958,-1.7931,-1.8099,-1.8099,-1.8099,-1.8099,-1.8286,-1.8269,-1.83,-1.8305,-1.8305,-1.8262,-1.8308,-1.8281,-1.8246,-1.824,-1.8209,-1.8169,-1.8157,-1.814,-1.8124,-1.8098,-1.8305,-1.8305,-1.8305,-1.8385,-1.8366,-1.8413,-1.8377,-1.8362,-1.8351,-1.8394,-1.8403,-1.8353,-1.8313,-1.8236,-1.8227,-1.8161,-1.8141,-1.8102,-1.8076,-1.8028,0,0]},{"header":{"parameterUnit":"m.s-1","parameterCategory":1,"la1":30.2992,"la2":30.254,"lo1":-89.0895,"lo2":-89.0443,"dy":0.0025,"dx":0.0025,"nx":19,"ny":19,"refTime":"2026-04-20T03:00:00:Z","depth":0,"parameterNumber":3,"parameterNumberName":"V-component_of_WINDS"},"data":[0,0,0,0.6977,0.6975,0.6869,0.6868,0.6741,0.674,0,0,0,0,0,0,0,0,0,0,0,0.7015,0.7015,0.6978,0.6975,0.6869,0.6868,0.6741,0.674,0,0,0,0,0,0,0,0,0,0,0,0.7016,0.7015,0.7014,0.6975,0.6869,0.6868,0.6741,0.6818,0,0,0,0,0,0,0,0,0,0,0.692,0.6961,0.7015,0.7014,0.6974,0.6869,0.6868,0.6822,0.6813,0.6793,0,0.6778,0,0.6757,0.6732,0.6731,0,0,0,0.697,0.6968,0.6934,0.7014,0.6973,0.6869,0.6915,0.6817,0.6807,0.6782,0.6776,0.6771,0.6755,0.6731,0.673,0.6636,0.6636,0,0,0.6976,0.6999,0.6941,0.6929,0.6947,0.6919,0.6912,0.6811,0.6805,0.6776,0.6768,0.6753,0.673,0.6729,0.6636,0.6636,0,0,0,0.6996,0.7003,0.6971,0.6934,0.6914,0.6916,0.6908,0.681,0.6797,0.6766,0.6751,0.6729,0.6728,0.6636,0.6636,0.665,0,0,0,0.6999,0.7015,0.6974,0.6988,0.6916,0.6861,0.6909,0.6804,0.6792,0.6752,0.6729,0.6727,0.6637,0.6636,0.665,0.6651,0,0,0,0.702,0.7018,0.7005,0.6989,0.6944,0.6862,0.6844,0.6801,0.6783,0.6731,0.6727,0.6637,0.6636,0.665,0.6651,0.6633,0,0,0,0.7048,0.7017,0.7005,0.6965,0.6945,0.6872,0.6844,0.6788,0.6745,0.6729,0.6637,0.6636,0.665,0.6651,0.6634,0.6622,0.6619,0,0,0.7021,0.7014,0.6989,0.6975,0.6911,0.6887,0.6823,0.676,0.6733,0.667,0.6667,0.665,0.6651,0.6633,0.6601,0.6599,0,0,0,0.6988,0.697,0.6948,0.6909,0.6862,0.6822,0.6768,0.6745,0.669,0.6706,0.6638,0.6638,0.6627,0.662,0.6619,0.6607,0.6634,0.6635,0.6635,0.6982,0.6951,0.6907,0.6864,0.6827,0.6772,0.6739,0.6699,0.6676,0.6662,0.6642,0.6626,0.6619,0.6617,0.6606,0.6634,0.6634,0.6634,0.6634,0.6939,0.6908,0.6883,0.683,0.6798,0.6753,0.67,0.6687,0.664,0.6638,0.6626,0.6625,0.6617,0.6605,0.6635,0.6635,0.6635,0.6635,0.6635,0.693,0.6909,0.6884,0.6827,0.6786,0.6744,0.6701,0.6673,0.6646,0.6634,0.661,0.661,0.6605,0.6626,0.6626,0.6626,0.6625,0.6625,0.6625,0.6929,0.6901,0.6869,0.6819,0.6792,0.6752,0.6699,0.6671,0.6632,0.6615,0.6615,0.6594,0.6623,0.663,0.6624,0.6624,0.6625,0.6625,0.6625,0.6894,0.6898,0.6849,0.6822,0.6762,0.6723,0.669,0.6636,0.6608,0.6588,0.6571,0.6597,0.6587,0.6588,0.6593,0.6579,0.6579,0.6579,0.6579,0.6885,0.6879,0.6822,0.6781,0.6738,0.6703,0.6648,0.6608,0.6566,0.6547,0.6546,0.6552,0.6554,0.6542,0.6544,0.6548,0.6523,0.6523,0.6523,0.6861,0.685,0.6808,0.677,0.6722,0.6681,0.6628,0.6581,0.6535,0.652,0.6532,0.6534,0.6543,0.6548,0.653,0.6533,0.6541,0,0]}]]